GEESAT 2-01

Satellite information

Favourite Embed

Satellite Type and Status

PAYLOADIN ORBIT

Key statistics

Satellite GEESAT 2-01 at a glance.

Uptime

624

Days in orbit

Revolutions

≈ 14.9

Per day

Orbit

LEO

Low Earth Orbit

Inclination

50.0

Latest

Satellite identification and parameters

Extended collection of information and parameters for GEESAT 2-01.

Object identification

Identified? True

Debris? False

Object name: GEESAT 2-01

International designator: 2024-023A

Object number (NORAD): 58905

Object ID (CCSDS): 58905

Country: PEOPLES REPUBLIC OF CHINA (PRC)

Current information (Y/N): Y

RCS size: MEDIUM

Orbital parameters

Period: 96.658 minutes

Inclination: 49.9956 deg

SMA: 6976.746 km

Apoapsis: 604.318 km

Periapsis: 592.905 km

RAAN: 49.7293 deg

Eccentricy: 0.0008179

Argument of periapsis: 226.5707 deg

Mean anomaly: 133.4554 deg

Mean motion: 14.8978423 rev/day

Mean motion (dot): 0.00004337 rev/day2

B* drag term: 0.00047146073 1/REarth

Two-line elements (TLE)

Creation date: Oct. 15, 2025, 6:23 p.m.

Reference frame: TEME

Reference center: EARTH

Epoch: Oct. 15, 2025, 4:50 a.m. UTC

TLE line 0: 0 GEESAT 2-01

TLE line 1: 1 58905U 24023A 25288.20199368 .00004337 00000-0 47146-3 0 9993

TLE line 2: 2 58905 49.9956 49.7293 0008179 226.5707 133.4554 14.89784230 92539

Live tracking on map

Real-time ground track for satellite GEESAT 2-01.

In-orbit conjunctions

There are no conjunctions computed for GEESAT 2-01, at the moment. Check back to stay up to date, as we update our databases every day.

Go to all conjunctions

Associated space launch

11 LEO communications satellites for Chinese car manufacturer Geely Automotive for testing autonomous driving/inter-vehicle communication services. They also carry payloads for ocean observation.

GEESAT 2-01 was lifted into orbit during the mission ‘Long March 2C | Geely Constellation Group 02’, on board a Long March 2 space rocket.

The launch took place on Feb. 2, 2024, 11:37 p.m. from Launch Complex 3 (LC-3/LA-1).

For more information about the launch, click the button.

Launch to space Long March 2C | Geely Constellation Group 02
Long March 2C | Geely Constellation Group 02

Agency: N/A

Status: Launch Successful

Launch date: Feb. 2, 2024, 11:37 p.m. UTC

Rocket: Long March 2

Launch pad: Launch Complex 3 (LC-3/LA-1)

Location: Xichang Satellite Launch Center, People's Republic of China

...

Latest news about this satellite

News about space launch
China launches 20 satellites on separate inland and sea rocket launches

A pair of Chinese rockets launched 11 mobility services satellites for an automaker and nine further, diverse satellites into orbit late Friday.


Newsletter sign-up

Weekly statistics, charts and insights to help you stay on top of the space industry.